This is the latest recevied weather packets stored in our database for station/object KC3WWU. If no packets are shown the sender has not sent any weather packets the latest 10 day(s).
| Time | Temp. | Humidity | Pressure | Rain* | Wind** | Luminosity | Snow |
|---|---|---|---|---|---|---|---|
| 1777910903 | 17.78° C | 49% | 1008.8 hPa | 0 mm | - | 700 W/m² | - |
| 1777910600 | 18.33° C | 49% | 1008.9 hPa | 0 mm | - | 693 W/m² | - |
| 1777910297 | 17.78° C | 49% | 1008.6 hPa | 0 mm | - | 683 W/m² | - |
| 1777909994 | 17.78° C | 50% | 1008.8 hPa | 0 mm | - | 675 W/m² | - |
| 1777909691 | 17.78° C | 51% | 1008.7 hPa | 0 mm | - | 671 W/m² | - |
| 1777909389 | 17.22° C | 49% | 1008.9 hPa | 0 mm | - | 684 W/m² | - |
| 1777909087 | 17.22° C | 51% | 1008.8 hPa | 0 mm | - | 690 W/m² | - |
| 1777908784 | 17.22° C | 49% | 1009.1 hPa | 0 mm | - | 715 W/m² | - |
| 1777908480 | 16.67° C | 51% | 1009 hPa | 0 mm | - | 757 W/m² | - |
| 1777908177 | 16.67° C | 51% | 1008.9 hPa | 0 mm | - | 630 W/m² | - |
| 1777907873 | 16.67° C | 50% | 1009 hPa | 0 mm | - | 607 W/m² | - |
| 1777907569 | 17.22° C | 50% | 1009.2 hPa | 0 mm | - | 606 W/m² | - |
| 1777907265 | 16.67° C | 49% | 1009.2 hPa | 0 mm | - | 595 W/m² | - |
| 1777906962 | 16.11° C | 51% | 1009 hPa | 0 mm | - | 585 W/m² | - |
| 1777906660 | 15.56° C | 53% | 1009 hPa | 0 mm | - | 573 W/m² | - |
| 1777906356 | 15.56° C | 52% | 1009 hPa | 0 mm | - | 563 W/m² | - |
| 1777906052 | 15.56° C | 52% | 1009.2 hPa | 0 mm | - | 576 W/m² | - |
| 1777905749 | 15.56° C | 53% | 1009.4 hPa | 0 mm | - | 540 W/m² | - |
| 1777905446 | 15° C | 55% | 1009.2 hPa | 0 mm | - | 524 W/m² | - |
| 1777905144 | 15° C | 53% | 1009.3 hPa | 0 mm | - | 515 W/m² | - |
| 1777904841 | 14.44° C | 54% | 1009.5 hPa | 0 mm | - | 500 W/m² | - |
| 1777904538 | 14.44° C | 54% | 1009.4 hPa | 0 mm | - | 489 W/m² | - |
| 1777904234 | 14.44° C | 54% | 1009.5 hPa | 0 mm | - | 474 W/m² | - |
| 1777903932 | 13.89° C | 53% | 1009.7 hPa | 0 mm | - | 465 W/m² | - |
| 1777903628 | 13.89° C | 55% | 1009.6 hPa | 0 mm | - | 443 W/m² | - |
* Rain latest hour (hover to see other rain measurements)
** Current wind speed in m/s (hover to see current wind gust speed)